GFSCGP_con_mlcape_159.txt.gz
CAPE
0 0 0 0 0 0 0 0 0 0 0 0 0 0 0 0 0 0 0 0 0 0 0 0 0 0 0 0 327 2178 3158 3411 3092 2610 2383 2306 2257 2244 2232 2165 2202 2234 2394 1883
0 0 0 0 0 0 0 0 0 2 11 0 0 0 0 0 0 0 0 0 0 0 0 0 0 0 0 0 0 136 1489 2994 3039 2276 2077 1767 2035 2090 2284 2429 2311 2182 2387 2034
1 0 1 0 0 0 0 0 0 0 12 17 0 0 0 0 0 0 0 0 0 0 0 0 0 0 0 0 0 0 293 1738 2796 1776 2154 2263 2236 2794 2737 2775 2804 2668 2194 1912
67 22 20 8 6 0 0 0 0 19 49 16 1 0 0 0 0 0 0 0 0 0 0 0 0 0 0 0 0 0 76 1553 2431 2399 1658 2136 1719 1594 2037 2187 2118 2037 1948 1827
1 79 110 67 57 26 0 5 24 19 20 21 11 0 0 0 0 0 0 0 0 0 0 0 0 0 0 0 0 9 50 1064 1342 2192 1706 1947 1392 1257 1783 2034 2129 1839 1899 1866
20 33 49 15 115 81 42 51 43 27 19 22 4 0 0 0 0 0 0 0 0 0 0 0 0 0 0 0 0 0 60 703 1881 2448 2273 1790 1548 1729 1973 1822 1887 1918 1715 1859
70 36 44 51 69 150 76 111 44 39 49 21 0 0 0 0 0 0 0 0 0 0 0 0 0 0 0 0 0 0 333 1358 1907 2449 2121 1822 1941 2189 1789 2112 2060 1642 1493 1473
68 34 152 94 128 153 147 112 76 31 27 3 0 5 0 0 0 0 0 0 0 0 0 0 0 0 0 0 0 0 664 1514 2197 1815 1709 1951 2168 1890 2259 2144 1548 1570 1402 1399
120 58 24 0 133 213 91 138 3 27 77 28 11 5 0 3 0 0 0 0 0 0 0 0 0 0 0 0 0 125 1239 1417 1298 1445 1742 1664 1907 2081 1647 1815 1525 1176 1180 1033
2 5 41 2 4 23 72 75 89 73 9 33 67 3 0 0 0 0 0 0 93 268 1 0 0 0 0 19 524 1252 1262 1325 1423 1445 1275 1256 1246 1087 783 769 550 540 512 493
0 3 99 66 22 73 96 29 45 144 35 51 19 44 2 0 2 0 0 459 667 466 1366 1015 233 347 946 1325 1234 1140 1205 1125 952 882 658 591 370 283 301 266 228 214 158 131
3 2 0 0 11 199 195 77 143 134 41 15 33 93 347 259 173 196 786 851 870 1156 1257 1356 1332 1163 1080 1097 1222 966 750 585 702 595 285 123 53 20 2 0 0 0 0 0
0 12 0 0 42 69 141 76 42 114 146 106 36 103 257 210 200 475 596 559 643 637 773 804 867 948 964 1215 1372 1050 567 443 171 42 5 0 0 0 0 0 0 0 0 0
9 0 0 2 0 8 60 77 99 50 48 62 84 138 320 299 257 273 169 333 939 924 853 847 997 957 1174 970 604 428 247 91 25 2 0 0 0 0 0 0 0 0 0 0
1 0 4 5 1 1 4 13 133 111 228 87 111 67 107 235 225 189 231 543 810 748 630 582 582 478 336 234 143 68 24 1 0 0 0 0 0 0 0 0 0 0 0 0
20 1 4 0 0 0 0 1 114 159 134 89 70 31 0 91 278 213 185 348 408 323 361 209 115 101 57 4 0 0 0 0 0 0 0 0 0 0 0 0 0 0 0 0
15 2 0 0 0 1 0 7 119 116 151 79 19 136 64 285 161 121 190 166 126 49 10 1 0 1 2 1 0 0 0 0 0 0 0 0 0 0 0 0 0 0 0 0
6 5 0 0 23 68 209 116 177 136 67 34 81 96 215 406 184 226 153 27 2 0 0 0 1 1 0 0 0 0 0 0 0 0 0 0 0 0 0 0 0 0 0 0
2 2 0 2 7 51 236 155 130 92 89 71 97 163 275 330 215 39 0 1 0 4 1 0 0 0 0 0 0 0 0 0 0 0 0 0 0 0 0 0 0 0 0 0
4 2 0 0 0 14 3 2 0 228 124 141 142 2 286 238 6 4 3 3 2 4 5 4 4 0 0 0 0 0 0 0 0 0 0 0 0 0 0 0 0 0 0 0
0 1 0 1 0 4 1 0 23 117 154 291 93 27 330 224 86 3 2 0 0 0 0 0 0 0 0 0 0 0 0 0 0 0 0 0 0 0 0 0 0 0 0 1
1 0 0 6 0 0 1 0 68 21 198 481 132 364 460 137 5 5 2 3 0 1 3 2 0 0 0 0 0 0 0 0 0 0 0 0 0 0 0 1 0 0 1 1
0 2 0 0 1 2 3 1 3 1 304 226 256 351 4 3 2 2 2 2 2 1 0 0 0 0 0 0 0 0 0 0 0 0 0 0 0 0 0 0 1 0 1 1
7 4 1 1 0 3 2 3 2 3 1 0 0 1 1 4 6 4 1 2 0 0 0 0 0 0 0 0 0 0 0 0 0 0 0 0 0 1 1 1 1 1 0 0
4 2 0 0 1 2 3 5 5 6 5 3 2 4 5 3 5 3 2 0 0 0 0 0 0 0 0 0 0 0 0 0 0 0 0 0 1 0 1 0 0 1 0 0
8 1 2 2 2 1 2 1 0 1 3 1 0 0 0 1 2 1 0 0 0 0 0 0 0 0 0 0 0 0 0 0 0 0 1 0 0 1 0 1 0 0 0 0

GFSCGP_con_mlcape_162.txt.gz
CAPE
0 0 0 0 0 0 0 0 0 0 0 0 0 0 0 0 0 0 0 0 0 0 0 0 0 0 45 2747 3079 2423 2643 2822 2951 2689 2537 2466 1860 2212 1894 2208 2046 2198 2146 2025
0 0 0 0 0 0 0 0 0 0 0 0 0 0 0 0 0 0 0 0 0 0 0 0 0 0 0 925 2496 3326 3170 3019 3314 3328 3224 2938 2963 2695 2641 2459 2473 2600 2615 2438
3 0 0 0 0 0 0 0 0 0 0 0 0 3 5 1 1 0 0 0 0 0 0 0 0 0 0 6 921 2279 3533 3392 3301 3447 3313 2858 2526 2924 2880 3044 2524 2436 2398 2272
62 13 3 0 14 19 0 0 0 0 2 0 0 2 19 3 0 0 0 0 0 0 0 0 0 0 0 0 48 549 2008 3277 3690 3580 2765 2700 2393 2623 2922 3039 3149 2911 2613 2287
21 100 125 55 10 37 67 48 1 0 1 12 0 28 3 14 0 0 0 0 0 0 0 0 0 0 0 0 0 0 62 1624 3427 2976 2714 2610 2482 2369 2394 2439 2595 2666 2521 2328
24 61 107 77 13 51 23 67 36 3 9 30 29 61 14 1 6 0 0 0 0 0 0 0 0 0 0 0 0 0 7 421 2421 2659 2299 2375 2180 1539 1578 1959 2139 2347 2038 2050
57 68 24 36 11 4 28 0 0 2 17 21 5 14 13 2 4 0 0 0 0 0 0 0 0 0 0 0 0 6 34 84 2042 2788 2499 2236 1815 2268 2497 2361 2085 1924 1844 1597
0 0 107 72 88 41 90 47 157 46 0 0 2 1 2 0 0 0 0 2 0 0 0 0 0 0 0 0 0 4 84 127 1736 2686 2722 2037 1545 2330 2205 2266 2283 1666 1509 1485
99 2 110 17 5 105 28 7 0 64 62 55 36 5 0 0 0 0 0 0 1 0 0 0 0 0 0 0 0 76 188 1157 2713 2966 2412 2382 2352 1990 2272 1850 1442 1235 1183 1080
11 0 0 0 0 9 71 126 45 2 30 16 27 30 0 0 0 0 0 0 0 0 0 0 0 0 0 0 87 504 2081 2328 2394 2170 2317 2137 2166 1705 1120 851 695 556 468 384
3 3 5 3 4 0 22 61 0 0 65 4 18 79 262 90 33 1 0 0 0 0 893 608 0 0 1 3 1596 1878 1746 1851 1633 1503 1063 1017 818 598 491 414 363 333 332 348
0 2 2 0 0 0 15 41 3 6 1 14 11 0 1 48 152 0 35 37 346 1423 1707 1765 879 955 1338 1812 1751 1724 1391 1196 917 610 545 449 355 187 39 2 0 0 0 0
11 3 1 2 49 0 11 0 1 0 7 11 40 2 84 47 455 923 1035 1226 1503 1563 1605 1616 1768 1844 1612 1333 1127 1091 1033 755 318 151 57 18 0 0 0 0 0 0 0 0
2 6 2 1 1 1 0 0 0 4 0 3 0 14 164 12 364 30 1059 1182 1127 1286 1555 1572 1611 1601 1422 1204 1007 805 406 177 49 0 0 0 0 0 0 0 0 0 0 0
4 0 0 1 0 0 0 0 0 0 17 20 0 0 4 132 371 325 722 1158 1197 1273 1331 1250 1214 1010 733 763 653 277 103 24 0 0 0 0 0 0 0 0 0 0 0 0
10 2 6 0 0 0 0 0 0 0 4 71 0 0 19 1 180 470 805 915 971 937 912 769 647 544 549 325 118 0 0 0 0 0 0 0 0 0 0 0 0 0 0 0
10 16 3 1 0 0 0 0 0 0 117 105 74 2 0 184 150 425 527 629 412 124 215 236 117 49 0 0 0 0 0 0 0 0 0 0 0 0 0 0 0 0 0 0
8 11 1 0 0 0 0 0 2 104 221 70 33 0 45 149 108 355 317 65 0 27 11 0 0 0 0 0 0 0 0 0 0 0 0 0 0 0 0 0 0 0 0 0
3 7 0 0 0 1 148 3 115 241 190 134 197 0 52 140 22 1 15 0 0 0 0 0 0 0 0 0 0 0 0 0 0 0 0 0 0 0 0 0 0 0 0 0
0 2 0 0 0 0 4 0 0 275 244 198 6 0 102 81 12 2 2 2 1 0 0 0 0 0 0 0 0 0 0 0 0 0 0 0 0 0 0 0 0 0 0 0
0 0 0 0 0 2 2 3 13 92 101 275 155 83 147 55 4 4 2 2 2 2 2 1 0 0 0 0 0 0 0 0 0 0 0 0 0 0 0 0 0 0 0 1
1 1 0 1 0 0 0 0 1 0 7 110 215 188 194 1 1 2 1 1 1 1 1 0 0 0 0 0 0 0 0 0 0 0 0 0 0 0 0 1 0 0 0 0
0 1 0 0 1 1 4 2 4 42 184 0 53 112 0 2 3 2 2 0 0 1 1 1 0 0 0 0 0 0 0 0 0 0 0 0 0 0 0 1 0 0 0 0
2 1 1 2 1 1 1 2 5 2 3 0 1 1 1 0 1 1 1 2 1 1 1 0 0 0 0 0 0 0 0 0 0 0 0 0 0 0 0 0 0 0 0 0
3 2 1 1 1 0 4 4 4 4 4 2 1 2 3 3 3 1 1 1 1 3 1 0 0 0 0 0 0 0 0 0 0 0 0 0 0 0 0 0 0 0 0 0
5 2 1 0 2 3 6 6 2 4 2 1 3 3 2 1 2 2 0 0 0 0 2 0 0 0 0 0 0 0 0 0 0 0 0 0 0 0 0 0 0 0 0 0

GFSCGP_con_mlcape_165.txt.gz
CAPE
0 0 0 0 0 0 0 0 0 0 0 0 0 0 0 0 0 0 0 0 0 0 0 0 0 0 0 1504 758 348 85 879 1266 1283 1056 1716 1804 1612 1657 1230 1573 1551 1262 1146
0 0 0 0 0 0 0 0 0 0 0 0 0 0 0 0 0 0 0 0 0 0 0 0 0 0 0 1297 1477 548 391 424 907 1513 1503 1580 1680 1860 1739 1728 1666 2170 1833 1708
1 0 1 0 0 0 0 0 0 0 0 0 0 0 0 0 0 0 0 0 0 0 0 0 0 0 0 2345 2299 1884 1911 1306 1531 2023 2251 1940 2211 1632 2225 1857 1858 2332 2340 2171
0 0 2 8 17 0 0 0 0 0 0 0 0 0 0 0 0 0 0 0 0 0 0 0 0 0 0 629 2904 2758 2383 2481 2715 2854 2766 2288 2585 2488 2288 2440 2443 2452 2431 2309
0 0 17 49 0 0 1 4 18 14 0 2 0 0 0 0 0 0 0 0 0 0 0 0 0 0 0 109 1789 3010 3042 2922 3158 3253 3013 2732 2466 2353 2753 2744 2750 2514 2308 2252
0 0 3 5 0 0 0 13 1 0 0 12 0 0 0 0 0 0 0 0 0 0 0 0 0 0 0 20 691 2163 3241 3217 3112 3127 2772 2591 2233 2485 2460 2573 2763 2626 2486 2358
0 3 5 29 7 1 0 0 5 0 0 0 0 0 0 0 0 0 0 0 0 0 0 0 0 0 0 21 144 734 2206 2826 3176 3043 2852 2351 2215 2002 1766 1702 1882 1865 1744 1959
0 0 27 38 27 13 41 0 3 2 0 0 0 0 0 0 0 1 0 0 0 0 0 0 0 0 0 11 19 200 1090 2263 3050 3184 2742 2317 2223 1823 1447 1695 1746 1816 1748 1537
0 0 10 0 16 0 2 0 46 16 7 1 0 0 0 0 0 0 0 0 0 0 0 0 0 0 0 0 0 0 0 82 1323 1936 2469 2230 2050 2072 2189 1841 1678 1591 1333 962
5 0 0 2 13 6 15 34 52 5 2 0 0 0 0 14 1 0 0 0 0 0 0 0 0 0 0 0 0 0 1 134 1938 2419 2262 2037 1788 1515 1168 982 808 739 647 568
14 8 0 0 0 0 5 0 0 0 0 0 0 0 0 18 15 24 5 0 0 52 0 0 0 0 0 0 0 55 752 2038 2455 2221 1850 1431 1160 907 652 499 312 252 130 50
0 0 0 0 0 0 4 12 7 0 0 0 0 0 33 20 1 77 438 23 1288 1190 754 439 35 0 0 210 1212 1570 1872 1874 1987 1486 1053 774 503 236 57 3 1 0 0 0
0 9 0 0 0 0 0 0 11 10 3 0 0 1 1 5 0 75 846 1265 1671 1598 1378 1132 1041 1179 1683 1799 1823 1548 1280 1326 1082 661 333 42 0 0 0 0 0 0 0 0
18 0 0 0 0 0 1 2 0 1 0 0 6 0 2 0 0 12 465 1053 1287 1600 1571 1429 1408 1586 1570 1369 1164 932 617 339 93 4 0 0 0 0 0 0 0 0 0 0
8 0 0 2 0 0 0 0 0 0 0 0 21 4 2 0 15 0 20 565 762 1505 1293 1471 1501 1110 1055 705 441 145 16 0 0 0 0 0 0 0 0 0 0 0 0 0
1 4 1 0 0 0 0 0 0 0 0 0 9 22 51 42 21 0 0 210 911 1470 1660 1410 1075 745 461 217 3 0 0 0 0 0 0 0 0 0 0 0 0 0 0 0
0 1 0 0 0 0 0 13 0 0 0 0 68 20 17 22 33 175 283 450 249 486 762 688 481 118 22 0 0 0 0 0 0 0 0 0 0 0 0 0 0 0 0 0
0 0 4 0 0 0 27 0 4 0 0 1 58 1 0 14 45 73 74 15 0 0 3 1 0 0 0 0 0 0 0 0 0 0 0 0 0 0 0 0 0 0 0 0
0 0 2 0 0 0 0 0 3 4 22 55 2 8 24 0 0 3 2 0 0 0 0 1 0 0 0 0 0 0 0 0 0 0 0 0 0 0 0 0 0 0 0 0
0 0 0 0 0 0 1 3 1 1 108 3 4 13 8 9 0 1 2 2 3 2 0 0 0 0 0 0 0 0 0 0 0 0 0 0 0 0 0 0 0 0 0 0
0 0 0 0 0 0 3 3 0 13 11 0 20 1 57 1 0 2 2 2 2 1 1 0 0 0 0 0 0 0 0 0 0 0 0 0 0 0 0 0 0 0 0 0
0 0 0 0 0 0 1 0 0 3 0 0 64 33 0 1 2 2 2 1 2 0 0 0 0 0 0 0 0 0 0 0 0 0 0 0 0 0 0 0 0 0 0 0
0 2 0 0 0 1 2 3 2 3 9 10 11 4 3 3 2 2 2 3 1 1 0 0 0 0 0 0 0 0 0 0 0 0 0 0 0 0 0 0 0 0 0 0
2 2 1 1 0 2 2 1 1 3 0 1 6 2 1 2 3 3 3 1 2 0 1 0 0 0 0 0 0 0 0 0 0 0 0 0 0 0 0 0 0 0 0 0
1 2 1 1 1 2 2 2 2 3 3 0 0 2 2 2 3 2 1 1 1 0 0 0 0 0 0 0 0 0 0 0 0 0 0 0 0 0 0 0 0 0 0 0
4 1 0 0 5 4 6 4 2 1 3 1 1 1 1 1 1 2 1 0 1 0 0 0 0 0 0 0 0 0 0 0 0 0 0 0 0 0 0 0 0 0 0 0

GFSCGP_con_mlcape_168.txt.gz
CAPE
0 0 0 0 0 0 0 0 0 0 0 0 0 0 0 0 0 0 0 0 0 0 0 0 0 0 22 509 518 442 438 352 400 1094 967 685 577 538 552 634 492 336 272 245
0 0 0 0 0 0 0 0 0 0 0 0 0 0 0 0 0 0 0 0 0 0 0 0 0 0 31 286 751 675 599 581 604 838 1490 1154 744 1194 926 825 998 843 685 501
0 0 0 4 0 0 0 0 0 0 0 0 0 0 0 0 0 0 0 0 0 0 0 0 0 0 12 168 630 877 840 790 927 1080 1195 1494 1626 1360 1439 1645 1402 1597 1401 1002
12 0 0 0 0 8 0 0 0 4 0 0 0 0 0 0 0 0 0 0 0 0 0 0 0 0 0 24 534 868 804 751 1100 1404 1428 1133 1343 1858 1628 1718 1707 1988 2136 1898
0 0 4 0 0 3 0 1 16 2 1 21 0 0 0 0 0 0 0 0 0 0 0 0 0 0 0 109 432 914 830 824 1134 1519 1560 1597 1528 1564 1661 1823 2001 1929 1895 2181
0 1 0 0 0 18 0 14 4 0 0 0 0 0 0 0 0 0 0 0 0 0 0 0 0 0 0 378 941 1148 1249 1192 1242 1163 1929 1124 1701 2063 1870 1888 2087 2149 2010 1650
0 0 0 0 1 1 25 0 0 13 6 1 0 0 0 0 0 0 0 0 0 0 0 0 0 0 0 55 1786 1717 2004 2122 2088 1840 2578 2420 2035 2116 2098 2525 2363 2098 1629 1800
0 0 0 0 9 1 11 4 5 1 0 0 0 0 0 0 0 0 0 0 0 0 0 0 0 0 0 0 945 2709 2450 2556 2768 2918 2814 2418 2128 2025 2155 2053 2017 2018 1812 1739
6 1 0 0 15 65 49 4 1 1 0 2 0 0 0 0 0 0 0 0 0 0 0 0 0 0 0 0 142 2309 3039 2878 3023 3121 2627 2432 1880 1703 1643 1638 1565 1603 1442 1128
11 0 0 3 9 17 4 30 10 4 1 1 0 0 0 0 0 0 0 0 0 0 0 0 0 0 0 0 0 921 2919 2741 2849 2738 2397 2177 1863 1548 1361 1377 1398 1306 905 582
3 0 0 1 0 0 2 4 0 0 0 0 0 0 0 0 0 2 0 0 0 5 0 0 0 0 0 0 0 363 1716 2588 2145 2333 2013 1863 1551 1302 1231 1204 1063 861 424 239
1 8 0 0 0 0 16 0 2 0 0 0 0 0 13 1 16 0 4 14 161 118 2 0 0 0 0 0 0 130 1689 2362 1991 1818 1454 1208 1093 865 855 737 309 72 4 0
1 10 0 0 7 0 0 0 0 1 1 0 0 0 0 0 0 0 0 48 815 1021 517 77 0 0 0 0 131 1213 1800 1538 1413 1157 862 433 238 108 11 0 0 0 0 0
20 0 0 0 0 0 0 0 0 0 0 0 1 0 0 0 0 0 0 12 52 1342 1062 747 304 441 619 983 1327 1584 1266 1022 764 476 296 62 0 0 0 0 0 0 0 0
0 0 0 0 0 0 0 0 0 0 0 1 0 0 0 4 0 0 0 0 0 545 1512 1251 1295 1387 1403 1362 1275 776 590 362 180 28 0 0 0 0 0 0 0 0 0 0
0 0 0 0 0 0 0 0 0 0 0 0 0 0 0 13 4 0 0 0 18 536 1041 1398 1075 1072 985 643 264 10 2 0 0 0 0 0 0 0 0 0 0 0 0 0
1 0 0 0 0 0 0 2 3 1 0 0 0 0 27 6 6 33 7 23 1 14 163 483 447 458 181 62 2 2 0 0 0 0 0 0 0 0 0 0 0 0 0 0
1 0 0 0 0 0 1 0 3 0 0 0 0 8 8 28 39 14 1 0 0 0 2 1 2 2 2 1 0 0 0 0 0 0 0 0 0 0 0 0 0 0 0 0
0 0 0 0 0 0 1 0 3 3 1 0 0 1 1 2 0 3 3 4 2 2 3 3 0 0 0 0 0 0 0 0 0 0 0 0 0 0 0 0 0 0 0 0
0 0 1 0 0 0 2 0 2 3 11 0 10 1 0 0 0 2 2 3 3 3 2 3 2 0 0 0 0 0 0 0 0 0 0 0 0 0 0 0 0 0 0 0
0 0 0 0 0 0 2 2 0 0 0 0 1 6 0 0 1 3 2 2 3 2 2 1 2 2 0 0 0 0 0 0 0 0 0 0 0 0 0 0 0 0 0 0
0 0 0 0 0 0 1 0 0 1 0 1 2 0 0 2 3 3 4 4 3 3 2 0 1 0 0 0 0 0 0 0 0 0 0 0 0 0 0 0 0 0 0 0
0 1 0 0 0 2 3 2 3 3 2 3 0 3 1 3 3 3 3 2 3 3 2 0 0 0 0 0 0 0 0 0 0 0 0 0 0 0 0 0 0 0 0 0
0 1 1 1 0 1 2 1 2 2 1 2 2 2 1 2 3 2 2 0 2 1 0 0 0 0 0 0 0 0 0 0 0 0 0 0 0 0 0 0 0 0 0 0
1 0 1 0 1 2 2 2 2 2 1 2 2 1 3 1 2 2 2 2 2 0 1 0 0 0 0 0 0 0 0 0 0 0 0 0 0 0 0 0 0 0 0 0
2 1 0 0 4 4 6 2 2 1 2 1 1 1 2 2 2 2 2 2 2 2 0 0 0 0 0 0 0 0 0 0 0 0 0 0 0 0 0 0 0 0 0 0

GFSCGP_con_mlcape_171.txt.gz
CAPE
0 0 0 0 0 0 0 0 0 0 0 0 0 0 0 0 0 0 0 0 0 0 0 0 143 449 626 591 594 348 211 125 170 147 124 186 191 120 75 48 82 106 146 87
0 0 0 0 0 0 0 0 0 0 0 0 0 0 0 0 0 0 0 0 0 0 0 0 0 116 545 426 491 422 261 153 280 268 250 237 278 240 97 162 239 207 229 208
0 0 0 0 0 0 0 0 0 0 0 0 0 0 0 0 0 0 0 0 0 0 0 0 0 0 170 422 481 517 381 322 553 743 618 614 468 677 435 477 585 605 393 365
0 0 3 13 5 2 0 0 0 5 0 0 0 0 0 0 0 0 0 0 0 0 0 0 0 0 1 133 450 563 548 465 454 954 1137 972 984 914 893 784 832 1065 860 791
0 0 0 0 0 0 0 2 16 0 1 25 0 0 0 0 0 0 0 0 0 0 0 0 0 0 0 100 281 581 671 654 637 730 1267 1399 1467 1346 1169 1466 1424 1592 1499 1496
0 0 0 0 0 3 31 16 0 7 3 19 0 0 0 0 0 0 0 0 0 0 0 0 0 0 0 28 346 630 607 739 904 980 1127 1408 1276 1563 1726 1674 1669 1812 1959 2008
0 0 0 0 0 0 12 12 4 1 18 2 0 0 0 0 0 0 0 0 0 0 0 0 0 0 0 0 33 394 616 670 1046 1262 1474 1359 1073 1394 1618 1746 1821 1768 1803 1819
0 0 0 0 0 0 0 7 12 0 7 0 0 22 0 0 0 0 0 0 0 0 0 0 0 0 0 0 20 175 319 521 924 1442 1597 1719 1557 1605 1655 1827 1754 1688 1473 1129
0 0 0 11 29 36 2 6 0 2 0 2 0 0 0 0 0 0 0 0 0 0 0 0 0 0 0 0 163 315 444 675 1026 1299 1589 1976 1725 1557 1647 1878 1483 859 926 976
0 1 2 16 0 9 62 0 5 6 0 0 0 0 0 0 0 0 0 0 0 0 0 0 0 0 0 0 68 931 915 845 1519 1866 2005 1908 1909 1714 1811 1631 953 703 453 351
3 0 2 0 0 1 13 16 4 0 0 0 0 0 0 0 0 0 0 1 0 0 0 0 0 0 0 0 0 1508 1645 1844 2372 2668 2262 1989 1653 1621 1506 1232 807 522 258 53
0 0 0 0 1 3 1 5 5 1 0 0 0 0 1 16 0 0 0 0 0 0 3 6 0 0 0 0 0 1035 2652 2406 2579 2501 1938 1630 1413 1272 1008 859 621 304 77 0
0 0 0 0 0 0 0 0 0 0 1 0 0 0 0 0 0 0 0 0 0 0 151 373 116 0 0 0 0 714 2521 2474 2078 1700 1466 1141 1032 827 394 90 0 0 0 0
11 1 0 0 0 0 0 0 1 0 0 0 0 0 0 0 0 0 0 0 0 0 277 665 376 66 0 0 49 1617 2134 1717 1204 899 735 417 193 36 0 0 0 0 0 0
0 0 0 0 0 0 0 0 0 0 0 0 0 0 0 0 0 0 0 0 0 0 114 700 381 18 0 153 1302 1550 1255 652 391 183 38 2 0 0 0 0 0 0 0 0
0 0 0 0 0 0 0 0 0 0 0 0 0 0 0 0 0 1 0 12 0 0 118 1261 1015 707 824 1182 1323 899 397 59 10 0 0 0 0 0 0 0 0 0 0 0
1 0 0 0 0 0 0 0 2 4 12 0 0 0 0 0 29 86 41 0 8 71 450 746 680 876 828 762 548 309 31 0 0 0 0 0 0 0 0 0 0 0 0 0
1 2 1 0 0 0 0 0 4 3 9 0 0 0 34 2 1 1 0 4 7 3 11 4 73 85 11 1 2 1 0 0 0 0 0 0 0 0 0 0 0 0 0 0
1 2 0 0 0 0 1 2 3 3 0 0 0 27 13 1 0 2 2 2 2 6 2 2 2 3 2 2 0 0 0 0 0 0 0 0 0 0 0 0 0 0 0 0
1 2 0 0 0 0 0 3 3 3 1 0 0 3 15 0 0 2 1 3 3 3 3 2 3 3 1 0 0 0 0 0 0 0 0 0 0 0 0 0 0 0 0 0
0 1 0 0 0 0 2 1 1 1 1 0 1 1 0 0 2 2 3 3 3 3 2 3 3 3 2 1 0 1 0 0 0 0 0 0 0 0 0 0 0 0 0 0
0 0 0 0 0 0 0 2 2 0 1 3 2 0 0 3 3 4 4 4 3 3 2 2 1 3 2 1 1 0 1 0 0 0 0 0 0 0 0 0 0 0 0 0
0 0 0 0 0 1 5 3 2 3 3 1 3 2 2 3 4 4 3 3 3 3 3 3 3 3 2 0 0 0 1 0 0 0 0 0 0 0 0 0 0 0 0 0
0 3 0 1 0 3 2 2 2 1 2 2 3 3 2 3 3 3 3 3 3 1 1 1 0 0 0 0 0 0 0 0 0 0 0 0 0 0 0 0 0 0 0 0
1 0 0 1 1 1 2 2 2 1 1 1 2 3 4 2 3 2 0 0 0 0 0 0 0 0 0 0 0 0 0 0 0 0 0 0 0 0 0 0 0 0 0 0
1 1 1 0 4 3 4 2 2 0 1 2 1 2 2 2 2 3 1 2 1 2 1 0 0 0 0 0 0 0 0 0 0 0 0 0 0 0 0 0 0 0 0 0

GFSCGP_con_mlcape_174.txt.gz
CAPE
0 0 0 0 0 0 0 0 0 0 0 0 0 0 0 0 0 0 0 0 0 0 0 0 0 852 886 762 476 335 418 448 535 353 206 174 108 213 192 201 180 176 209 163
0 0 0 0 0 0 0 0 0 0 0 0 0 0 0 0 0 0 0 0 0 0 0 0 0 483 759 686 629 478 363 253 438 334 206 121 107 67 113 102 96 102 131 114
0 0 0 0 0 0 0 0 0 0 0 0 0 0 0 0 0 0 0 0 0 0 0 0 0 0 646 614 614 619 520 393 368 278 175 152 217 178 101 91 89 74 124 115
0 0 0 0 0 1 0 0 0 3 1 0 0 0 0 0 0 0 0 0 0 0 0 0 0 0 387 638 595 610 535 467 419 275 157 95 92 180 248 237 208 185 203 183
0 0 0 0 0 0 0 0 0 3 29 6 0 0 0 0 0 0 0 0 0 0 0 0 0 0 14 701 627 620 546 452 426 315 249 214 227 358 423 420 421 463 417 325
0 0 0 0 0 0 0 2 12 30 11 17 0 0 0 0 0 0 0 0 0 0 0 0 0 0 0 0 156 320 549 534 434 584 558 453 601 659 724 897 768 820 800 758
0 0 0 0 0 0 2 2 6 0 2 0 0 1 0 0 0 0 0 0 0 0 0 0 0 0 0 0 0 321 491 599 564 579 1010 1033 1031 1225 1070 1340 1225 1088 1032 1069
0 0 0 0 0 0 1 0 0 0 0 0 1 6 0 0 0 0 0 0 0 0 0 0 0 0 0 0 0 63 419 474 643 733 896 1283 1288 1481 1553 1554 1523 1450 1518 1486
0 0 0 0 4 5 1 0 0 0 0 0 0 0 0 0 0 0 0 0 0 0 0 0 0 0 0 0 0 0 201 549 590 796 1000 1152 1333 1553 1708 1790 1625 1428 1070 716
3 1 0 32 5 2 6 0 0 4 0 0 0 0 0 0 0 0 0 0 0 0 0 0 0 0 0 0 0 0 179 235 425 786 1088 1428 1542 1597 1679 1613 1343 1170 530 233
0 2 0 0 6 5 24 5 14 0 0 0 0 0 0 0 0 0 0 0 0 0 0 0 0 0 0 0 0 0 143 342 492 862 1284 1633 1684 1731 1616 1293 967 762 121 2
2 0 0 0 0 6 10 30 1 8 0 0 0 0 0 0 16 7 0 0 0 0 0 0 0 0 0 0 0 31 357 567 768 1078 1494 1682 1680 1603 1143 616 468 188 4 0
0 0 0 0 0 4 2 0 2 0 1 0 0 0 0 0 0 0 0 0 0 0 0 0 0 44 0 0 0 75 993 1141 1519 1994 1789 1565 1527 1199 391 22 2 0 0 0
15 0 0 0 0 0 0 0 1 0 0 0 0 0 0 0 0 0 0 0 0 0 0 0 0 75 320 0 0 67 1777 2249 2312 1986 1613 1110 755 212 2 1 0 0 0 0
0 1 0 0 0 0 0 0 0 0 0 0 0 0 0 0 0 0 0 0 0 0 0 0 0 3 168 26 0 984 2356 2271 1964 1298 728 114 3 1 1 0 0 0 0 0
0 0 0 0 0 0 0 0 0 0 0 0 0 0 0 0 0 0 0 22 42 4 3 0 23 425 49 78 481 1595 1522 1284 901 239 4 2 3 0 0 0 0 0 0 0
0 0 0 0 0 0 0 0 0 0 1 1 0 0 0 0 0 58 9 13 0 72 96 307 1015 477 212 964 1311 1073 623 336 143 2 3 3 1 0 0 0 0 0 0 0
2 1 0 0 0 0 0 3 2 2 0 3 0 0 0 4 3 4 2 1 1 2 0 84 425 429 526 496 388 46 10 10 4 3 3 1 0 0 0 0 0 0 0 0
1 1 0 0 0 0 1 1 1 1 0 2 0 13 11 2 0 2 2 3 1 2 1 3 2 16 3 6 4 3 4 2 1 1 0 0 0 0 0 0 0 0 0 0
2 1 0 0 0 0 0 2 2 2 0 0 1 0 17 12 0 3 2 4 4 4 0 1 3 3 2 3 2 1 2 1 0 0 0 0 0 0 0 0 0 0 0 0
0 0 0 0 0 0 1 1 0 0 0 0 2 2 0 0 1 2 2 2 2 3 2 2 2 2 2 2 2 4 3 3 2 1 0 0 0 0 0 0 0 0 0 0
0 0 0 0 0 0 0 0 1 0 1 3 2 4 3 3 3 3 2 2 2 2 1 2 3 2 1 2 2 2 2 2 1 0 0 0 0 0 0 0 0 0 0 0
0 0 0 0 0 2 2 3 1 2 2 2 3 4 4 3 4 4 3 3 2 3 3 3 2 2 2 2 2 3 3 1 0 0 0 0 0 0 0 0 0 0 0 0
0 2 0 0 0 2 3 1 1 2 2 2 3 3 4 2 3 3 3 3 3 2 2 2 1 0 1 0 0 0 0 0 0 0 0 0 0 0 0 0 0 0 0 0
1 0 1 1 1 3 1 3 2 2 1 2 2 3 2 0 2 2 3 2 2 1 1 1 1 2 2 0 0 0 0 0 0 0 0 0 0 0 0 0 0 0 0 0
2 1 1 1 3 2 4 2 2 0 1 2 2 3 3 3 2 1 1 2 1 0 0 0 0 0 0 0 0 0 0 0 0 0 0 0 0 0 0 0 0 0 0 0